www.pogodaiklimat.ru

Погода и климат >> Архив погоды >> Россия >> Краснодарский край >> Анапа


АРХИВ ПОГОДЫ в Анапе

Время (UTC), дата Ветер
(напр.,м/с)
 
Видим.   Явления Облачность Т
(С)
Тd
(С)
f
(%)
Тe
(С)
Тes
(С)
Комфортность P
(гПа)
Po
(гПа)
Тmin
(С)
Tmax
(С)
R
(мм)
R24
(мм)
S
(см)
00 21.05 Ю 4 4000 м дымка 5/5 600 м
[Sc]
+13.6 +12.1 91 +12 +12 по сезону 1009.0 1005.1
03 21.05 Ю 5 10 км 4/4 600 м
[Sc]
+14.0 +11.5 85 +12 +12 прохладно 1008.8 1004.9 +13.6
06 21.05 Ю 7 20 км 4/3 600 м
[Sc Ac trans Ci sp]
+15.2 +11.4 78 +13 +15 прохладно 1009.0 1005.1
09 21.05 Ю 9-11
{11}
20 км 8/1 600 м
[Cu med, cong Ci sp]
+16.0 +11.9 77 +14 +16 прохладно 1009.6 1005.6
12 21.05 Ю 8-10
{11}
20 км 9/1 600 м
[Cu med, cong Ci]
+16.2 +11.4 73 +15 +16 прохладно 1009.9 1006.0
15 21.05 Ю 7
{10}
20 км 9/0
[Ac trans Ci sp]
+15.9 +11.3 74 +14 +15 прохладно 1009.7 1005.8 +17.1
18 21.05 Ю 8
{10}
10 км 9/3 600 м
[Cb cap Ac As]
+15.0 +11.5 80 +13 +13 прохладно 1010.5 1006.6
21 21.05 Ю 5 10 км 10/8 600 м
[Sc Ac und]
+14.7 +10.7 77 +13 +13 по сезону 1010.3 1006.3
00 22.05 ЮВ 2 10 км 10/10 600 м
[Sc]
+13.8 +10.4 80 +13 +13 по сезону 1009.3 1005.3
03 22.05 В 1 10 км 10/5 600 м
[Cb cap Ac und]
+13.4 +10.3 81 +14 +14 по сезону 1009.3 1005.4 +13.4
06 22.05 Ю 4 10 км 9/5 600 м
[Sc Ac As]
+14.6 +10.3 75 +13 +15 прохладно 1009.6 1005.7
09 22.05 Ю 3 10 км {ливн. осадки} 10/8 600 м
[Cb cap Ac und]
+14.9 +10.6 75 +14 +15 прохладно 1009.9 1005.9
12 22.05 ЮЗ 4 10 км {ливн. осадки} 10/10 600 м
[Cb cap]
+13.6 +11.7 88 +12 +12 холодно 1010.1 1006.2
15 22.05 Ю 2 10 км слабый ливневой дождь 10/10 600 м
[Cb cap]
+13.8 +12.0 89 +13 +13 прохладно 1010.5 1006.6 +16.1 0.3
18 22.05 Ю 2 10 км в посл. час ливневой дождь 10/10 600 м
[Cb cap]
+13.7 +10.7 82 +13 +13 прохладно 1011.8 1007.8
21 22.05 ЮЗ 3 10 км {ливн. осадки} 9/9 600 м
[Cb cap]
+13.5 +10.0 79 +12 +12 прохладно 1012.2 1008.2
00 23.05 В 2 10 км {ливн. осадки} ясно +11.8 +10.1 89 +11 +11 прохладно 1011.8 1007.8
03 23.05 СВ 2 4000 м дымка 8/8 600 м
[Cb cap]
+9.9 +8.6 92 +8 +8 очень
холодно
1012.7 1008.7 +9.6 0.8
06 23.05 Ю 2 20 км 6/3 600 м
[Cu med, cong Ci sp]
+15.1 +10.2 73 +15 +21 по сезону 1013.6 1009.7
09 23.05 ЮЗ 3 20 км 8/4 600 м
[Cu med, cong Ci sp]
+16.5 +10.5 68 +16 +24 по сезону 1014.4 1010.5
12 23.05 З 3 20 км 8/4 600 м
[Cb cap Ac trans Ci sp]
+16.6 +9.9 65 +16 +21 прохладно 1014.9 1011.0
15 23.05 З 3 20 км 10/8 300 м
[Cb cap Ci sp]
+16.5 +11.2 71 +16 +17 по сезону 1015.2 1011.3 +17.1
18 23.05 В 1 4000 м слабый ливневой дождь 10/10 300 м
[Cb cap]
+13.7 +12.4 92 +14 +14 прохладно 1016.9 1012.9
21 23.05 ЮЗ 1 4000 м в посл. час ливневой дождь 10/10 300 м
[Cb cap]
+13.4 +12.4 94 +13 +13 по сезону 1017.2 1013.2
00 24.05 СВ 2 4000 м в посл. час ливневой дождь 10/10 300 м
[Cb cap]
+12.6 +12.0 96 +12 +12 по сезону 1017.3 1013.3
03 24.05 СВ 2 4000 м дымка 9/8 300 м
[Cb cap Ac trans]
+12.5 +11.5 94 +11 +12 прохладно 1017.7 1013.7 +12.4 6
06 24.05 СВ 2 10 км {ливн. осадки} 9/5 600 м
[Cb cap Ac trans]
+15.1 +11.9 81 +15 +17 прохладно 1018.0 1014.0
09 24.05 Ю 4 10 км 9/9 300 м
[Cb cap]
+15.8 +12.1 79 +15 +16 прохладно 1018.6 1014.7
12 24.05 Ю 4 10 км в посл. час ливневой дождь 9/9 300 м
[Cb cap]
+15.0 +12.5 85 +14 +15 холодно 1019.0 1015.0
15 24.05 В 2 20 км 9/6 600 м
[Sc Ci sp]
+16.3 +10.4 68 +16 +17 по сезону 1018.9 1015.0 +17.3 0.3
18 24.05 ЮВ 1 10 км 8/5 600 м
[Sc Ci sp]
+14.4 +11.7 84 +15 +15 по сезону 1019.4 1015.5
21 24.05 В 1 10 км 8/8 600 м
[Sc]
+13.8 +11.2 84 +14 +14 по сезону 1019.8 1015.8
00 25.05 СВ 1 4000 м дымка 10/10 600 м
[Cb cap]
+12.4 +11.1 92 +12 +12 прохладно 1019.4 1015.4
03 25.05 СВ 2 10 км 9/0
[Ac trans Ci sp]
+12.5 +10.2 86 +12 +12 прохладно 1019.0 1015.0 +11.6
06 25.05 С 3 20 км 8/1 600 м
[Cu med, cong Ci sp]
+16.8 +7.1 53 +17 +23 по сезону 1019.0 1015.0
09 25.05 СВ 2 20 км 8/8 600 м
[Cb cap Ci sp]
+17.3 +7.9 54 +18 +21 по сезону 1018.9 1015.0
12 25.05 Ю 4 20 км 9/8 600 м
[Cb cap Ac trans Ci sp]
+15.8 +11.0 73 +15 +16 прохладно 1018.9 1014.9
15 25.05 Ю 2 20 км 8/6 600 м
[Cb cap Ci sp]
+15.9 +10.1 68 +16 +17 по сезону 1018.2 1014.2 +18.1
18 25.05 штиль 0 10 км 5/0
[Ac trans Ci sp]
+13.6 +10.4 81 +13 +13 прохладно 1018.0 1014.0
21 25.05 СВ 2 10 км ясно +12.2 +9.3 82 +11 +11 прохладно 1017.6 1013.6
00 26.05 СВ 2 10 км 8/0
[Ci sp]
+10.5 +8.7 89 +9 +9 холодно 1017.1 1013.0
03 26.05 СВ 2 10 км ясно +11.8 +9.2 84 +11 +11 холодно 1016.5 1012.5 +10.4
06 26.05 СВ 3 20 км ясно +17.4 +10.3 63 +17 +25 по сезону 1015.7 1011.8
09 26.05 З 3 20 км 3/3 600 м
[Cu hum]
+19.3 +13.1 67 +21 +32 комфорт 1015.2 1011.3
12 26.05 ЮЗ 4 20 км ясно +19.5 +12.9 66 +21 +30 комфорт 1014.6 1010.7
15 26.05 З 2 20 км ясно +18.7 +13.1 70 +20 +23 тепло 1013.3 1009.4 +20.4
18 26.05 СВ 2 10 км ясно +16.7 +13.0 79 +17 +17 по сезону 1013.0 1009.1
21 26.05 СВ 2 10 км ясно +14.5 +12.7 89 +14 +14 по сезону 1012.4 1008.5
00 27.05 СВ 2 4000 м дымка ясно +12.2 +11.1 93 +11 +11 прохладно 1011.8 1007.8
03 27.05 СВ 2 4000 м дымка ясно +14.3 +13.1 92 +14 +14 прохладно 1011.8 1007.8 +12.0
06 27.05 С 1 10 км ясно +18.8 +14.8 78 +21 +32 комфорт 1011.9 1008.0
09 27.05 З 2 10 км ясно +20.6 +15.8 74 +24 +43 комфорт 1012.2 1008.3
12 27.05 З 2 10 км ясно +21.3 +16.2 73 +25 +39 комфорт 1012.0 1008.1
15 27.05 З 1 10 км ясно +20.4 +14.8 70 +24 +27 комфорт 1011.5 1007.6 +21.6
18 27.05 СЗ 1 10 км ясно +17.6 +14.6 83 +19 +19 тепло 1012.8 1008.9

 

Местоположение метеостанции Анапа (Краснодарский край, Россия): широта 44.88 долгота 37.28 высота над уровнем моря 32 м.

В архиве по умолчанию представлена погода в Анапе за последнюю неделю. Архивные данные за месяц целиком и за предыдущие месяцы, начиная с января 2011 года, Вы можете получить, выбрав интересующий диапазон дат из раскрывающегося списка и нажав кнопку "Ввод!".

Внимание! Время в таблицах - всемирное. Для получения местного времени необходимо прибавить поправку, которая в Анапе равна 3 ч.

Смотрите также архив погоды в соседних городах и на ближайших метеорологических станциях:

Погода в Новороссийске (Краснодарский край, Россия) (48 км)
Погода в Темрюке (Краснодарский край, Россия) (50 км)
Погода в Крымске (Краснодарский край, Россия) (57 км)
Погода в Тамани (Краснодарский край, Россия) (58 км)
Погода в Геленджике (Краснодарский край, Россия) (72 км)
Погода в Славянске-на-Кубани (Краснодарский край, Россия) (80 км)
Погода в Керчи (Крым, Россия) (86 км)
Погода в Джубге (Краснодарский край, Россия) (129 км)
Погода на Мысовом (Крым, Россия) (131 км)
Погода в Краснодаре (Краснодарский край, Россия) (139 км)

Пояснения к столбцам:

Ветер - указаны скорость ветра в м/с - средняя за 10 мин, порывы в срок и между сроками (в фигурных скобках) и направление, откуда дует ветер: С - северный, СВ - северо-восточный, В - восточный, ЮВ - юго-восточный, Ю - южный, ЮЗ - юго-западный, З - западный, СЗ - северо-западный.
Видимость - горизонтальная дальность видимости в метрах или километрах. При видимости от 1 до 10 км при отсутствии осадков обычно наблюдается дымка, при ухудшении видимости до 1 км и менее - туман. В сухую погоду видимость может ухудшаться дымом, пылью или мглою.
Явления - указаны атмосферные явления, наблюдавшиеся в срок или в последний час перед сроком; фигурными скобками обозначены явления, наблюдавшиеся между сроками (за 1-3 часа до срока); квадратными скобками обозначены град или гололедные отложения с указанием их диаметра в мм.
Облачность - указаны через наклонную черту общая и нижняя облачность в баллах и высота нижней границы облаков в метрах; квадратными скобками обозначены формы облаков: Ci - перистые, Cs - перисто-слоистые, Cc - перисто-кучевые, Ac - высококучевые, As - высокослоистые, Sc - слоисто-кучевые, Ns - слоисто-дождевые, Cu - кучевые, Cb - кучево-дождевые. Подробнее классификацию облаков см. в Атласе облаков (PDF).
T - Температура воздуха - температура, измеренная на высоте 2 м над землей.
Td - Температура точки росы - температура, при понижении до которой содержащийся в воздухе водяной пар достигнет насыщения.
f - Относительная влажность воздуха - влажноcть воздуха, измеренная на высоте 2 м над землей.
Te - Эффективная температура - температура, которую ощущает одетый по сезону человек в тени. Характеристика душности погоды. При расчете учитывается влияние влажности воздуха и скорости ветра на теплоощущения человека.
Tes - Эффективная температура на солнце - температура, которую ощущает человек, с поправкой на солнечный нагрев. Характеристика знойности погоды. Зависит от высоты солнца над горизонтом, облачности и скорости ветра. Ночью, в пасмурную погоду, а также при ветре 12 м/с и более поправка равна нулю.
P - Атмосферное давление - приведенное к уровню моря атмосферное давление.
Po - Атмосферное давление - измеренное на уровне метеостанции атмосферное давление.
Tmin - Минимальная температура - минимум температуры воздуха на высоте 2 м над землей.
Tmax - Максимальная температура - максимум температуры воздуха на высоте 2 м над землей.
R - Количество осадков - Количество выпавших осадков за период времени, мм. При наведении курсора мыши на число - период времени, за который выпало указанное количество осадков.
R24 - Количество осадков - Количество выпавших осадков за 24 часа, мм.
S - Снежный покров - Высота снежного покрова, см. При наведении курсора мыши на число - состояние снежного покрова и степень покрытия местности в баллах.